Year,Month,Day,Hour,Minute,Value (Times are PST for windspeed in km/hr)
2019,04,27,00,00,0.00
2019,04,27,00,01,0.10
2019,04,27,00,02,0.20
2019,04,27,00,03,1.10
2019,04,27,00,04,0.50
2019,04,27,00,05,1.20
2019,04,27,00,06,1.90
2019,04,27,00,07,1.70
2019,04,27,00,08,1.20
2019,04,27,00,09,0.20
2019,04,27,00,10,0.10
2019,04,27,00,11,2.10
2019,04,27,00,12,2.80
2019,04,27,00,13,1.00
2019,04,27,00,14,1.80
2019,04,27,00,15,1.40
2019,04,27,00,16,0.80
2019,04,27,00,17,0.60
2019,04,27,00,18,0.80
2019,04,27,00,19,1.30
2019,04,27,00,20,1.40
2019,04,27,00,21,2.00
2019,04,27,00,22,0.10
2019,04,27,00,23,0.10
2019,04,27,00,24,0.10
2019,04,27,00,25,0.50
2019,04,27,00,26,2.00
2019,04,27,00,27,1.00
2019,04,27,00,28,0.90
2019,04,27,00,29,0.70
2019,04,27,00,30,0.30
2019,04,27,00,31,0.70
2019,04,27,00,32,0.40
2019,04,27,00,33,0.00
2019,04,27,00,34,0.00
2019,04,27,00,35,0.00
2019,04,27,00,36,0.10
2019,04,27,00,37,0.40
2019,04,27,00,38,0.10
2019,04,27,00,39,0.00
2019,04,27,00,40,0.00
2019,04,27,00,41,0.20
2019,04,27,00,42,0.70
2019,04,27,00,43,0.80
2019,04,27,00,44,0.00
2019,04,27,00,45,1.10
2019,04,27,00,46,0.40
2019,04,27,00,47,1.40
2019,04,27,00,48,2.40
2019,04,27,00,49,1.90
2019,04,27,00,50,1.10
2019,04,27,00,51,1.30
2019,04,27,00,52,0.50
2019,04,27,00,53,0.80
2019,04,27,00,54,2.10
2019,04,27,00,55,1.80
2019,04,27,00,56,1.20
2019,04,27,00,57,3.20
2019,04,27,00,58,3.10
2019,04,27,00,59,2.30
2019,04,27,01,00,1.90
2019,04,27,01,01,0.70
2019,04,27,01,02,7.20
2019,04,27,01,03,3.80
2019,04,27,01,04,3.90
2019,04,27,01,05,5.50
2019,04,27,01,06,11.70
2019,04,27,01,07,7.50
2019,04,27,01,08,7.40
2019,04,27,01,09,5.70
2019,04,27,01,10,6.00
2019,04,27,01,11,6.10
2019,04,27,01,12,4.70
2019,04,27,01,13,3.00
2019,04,27,01,14,8.00
2019,04,27,01,15,5.60
2019,04,27,01,16,4.00
2019,04,27,01,17,3.20
2019,04,27,01,18,6.50
2019,04,27,01,19,4.60
2019,04,27,01,20,2.60
2019,04,27,01,21,1.60
2019,04,27,01,22,2.30
2019,04,27,01,23,3.20
2019,04,27,01,24,6.40
2019,04,27,01,25,3.30
2019,04,27,01,26,4.00
2019,04,27,01,27,4.20
2019,04,27,01,28,1.60
2019,04,27,01,29,1.80
2019,04,27,01,30,2.00
2019,04,27,01,31,4.20
2019,04,27,01,32,4.10
2019,04,27,01,33,3.50
2019,04,27,01,34,4.60
2019,04,27,01,35,3.80
2019,04,27,01,36,4.10
2019,04,27,01,37,2.70
2019,04,27,01,38,2.00
2019,04,27,01,39,1.30
2019,04,27,01,40,0.60
2019,04,27,01,41,1.10
2019,04,27,01,42,2.50
2019,04,27,01,43,3.10
2019,04,27,01,44,4.70
2019,04,27,01,45,4.20
2019,04,27,01,46,7.20
2019,04,27,01,47,5.70
2019,04,27,01,48,5.50
2019,04,27,01,49,5.00
2019,04,27,01,50,7.00
2019,04,27,01,51,9.00
2019,04,27,01,52,7.50
2019,04,27,01,53,10.90
2019,04,27,01,54,8.10
2019,04,27,01,55,5.20
2019,04,27,01,56,5.40
2019,04,27,01,57,7.00
2019,04,27,01,58,9.20
2019,04,27,01,59,6.80
2019,04,27,02,00,3.50
2019,04,27,02,01,5.90
2019,04,27,02,02,12.00
2019,04,27,02,03,12.60
2019,04,27,02,04,7.80
2019,04,27,02,05,6.30
2019,04,27,02,06,6.40
2019,04,27,02,07,7.10
2019,04,27,02,08,6.60
2019,04,27,02,09,5.20
2019,04,27,02,10,7.40
2019,04,27,02,11,5.50
2019,04,27,02,12,6.30
2019,04,27,02,13,8.30
2019,04,27,02,14,5.20
2019,04,27,02,15,5.30
2019,04,27,02,16,3.70
2019,04,27,02,17,8.40
2019,04,27,02,18,11.20
2019,04,27,02,19,7.90
2019,04,27,02,20,7.20
2019,04,27,02,21,7.00
2019,04,27,02,22,3.80
2019,04,27,02,23,5.50
2019,04,27,02,24,5.10
2019,04,27,02,25,6.70
2019,04,27,02,26,4.10
2019,04,27,02,27,7.00
2019,04,27,02,28,7.40
2019,04,27,02,29,12.30
2019,04,27,02,30,14.80
2019,04,27,02,31,9.00
2019,04,27,02,32,9.50
2019,04,27,02,33,12.90
2019,04,27,02,34,10.10
2019,04,27,02,35,6.10
2019,04,27,02,36,5.60
2019,04,27,02,37,9.70
2019,04,27,02,38,8.60
2019,04,27,02,39,12.40
2019,04,27,02,40,15.00
2019,04,27,02,41,10.40
2019,04,27,02,42,8.70
2019,04,27,02,43,11.10
2019,04,27,02,44,6.40
2019,04,27,02,45,6.20
2019,04,27,02,46,7.20
2019,04,27,02,47,5.50
2019,04,27,02,48,7.10
2019,04,27,02,49,8.70
2019,04,27,02,50,7.30
2019,04,27,02,51,9.10
2019,04,27,02,52,6.80
2019,04,27,02,53,8.20
2019,04,27,02,54,12.60
2019,04,27,02,55,8.10
2019,04,27,02,56,8.80
2019,04,27,02,57,7.00
2019,04,27,02,58,11.00
2019,04,27,02,59,6.40
2019,04,27,03,00,2.00
2019,04,27,03,01,11.20
2019,04,27,03,02,7.80
2019,04,27,03,03,8.30
2019,04,27,03,04,9.20
2019,04,27,03,05,8.30
2019,04,27,03,06,4.40
2019,04,27,03,07,7.80
2019,04,27,03,08,8.10
2019,04,27,03,09,7.00
2019,04,27,03,10,11.10
2019,04,27,03,11,10.30
2019,04,27,03,12,4.60
2019,04,27,03,13,9.80
2019,04,27,03,14,8.60
2019,04,27,03,15,6.00
2019,04,27,03,16,7.90
2019,04,27,03,17,8.30
2019,04,27,03,18,8.10
2019,04,27,03,19,13.80
2019,04,27,03,20,8.40
2019,04,27,03,21,10.30
2019,04,27,03,22,8.10
2019,04,27,03,23,9.70
2019,04,27,03,24,10.20
2019,04,27,03,25,8.40
2019,04,27,03,26,13.90
2019,04,27,03,27,9.70
2019,04,27,03,28,14.00
2019,04,27,03,29,9.30
2019,04,27,03,30,9.80
2019,04,27,03,31,8.80
2019,04,27,03,32,13.60
2019,04,27,03,33,6.20
2019,04,27,03,34,10.30
2019,04,27,03,35,12.30
2019,04,27,03,36,7.00
2019,04,27,03,37,9.30
2019,04,27,03,38,8.30
2019,04,27,03,39,10.20
2019,04,27,03,40,9.20
2019,04,27,03,41,10.80
2019,04,27,03,42,11.70
2019,04,27,03,43,9.50
2019,04,27,03,44,7.30
2019,04,27,03,45,5.40
2019,04,27,03,46,4.50
2019,04,27,03,47,9.30
2019,04,27,03,48,7.10
2019,04,27,03,49,8.50
2019,04,27,03,50,7.40
2019,04,27,03,51,8.60
2019,04,27,03,52,7.60
2019,04,27,03,53,5.90
2019,04,27,03,54,5.20
2019,04,27,03,55,5.70
2019,04,27,03,56,4.50
2019,04,27,03,57,7.00
2019,04,27,03,58,6.40
2019,04,27,03,59,6.60
2019,04,27,04,00,9.00
2019,04,27,04,01,7.90
2019,04,27,04,02,9.00
2019,04,27,04,03,4.80
2019,04,27,04,04,8.60
2019,04,27,04,05,4.80
2019,04,27,04,06,3.00
2019,04,27,04,07,5.80
2019,04,27,04,08,6.30
2019,04,27,04,09,6.90
2019,04,27,04,10,7.20
2019,04,27,04,11,6.70
2019,04,27,04,12,7.60
2019,04,27,04,13,9.10
2019,04,27,04,14,9.00
2019,04,27,04,15,8.70
2019,04,27,04,16,4.70
2019,04,27,04,17,4.40
2019,04,27,04,18,8.80
2019,04,27,04,19,5.90
2019,04,27,04,20,6.00
2019,04,27,04,21,8.10
2019,04,27,04,22,3.90
2019,04,27,04,23,6.00
2019,04,27,04,24,5.20
2019,04,27,04,25,4.90
2019,04,27,04,26,3.90
2019,04,27,04,27,3.20
2019,04,27,04,28,5.20
2019,04,27,04,29,1.20
2019,04,27,04,30,0.80
2019,04,27,04,31,3.40
2019,04,27,04,32,7.90
2019,04,27,04,33,3.90
2019,04,27,04,34,2.30
2019,04,27,04,35,5.40
2019,04,27,04,36,2.20
2019,04,27,04,37,3.60
2019,04,27,04,38,4.10
2019,04,27,04,39,2.60
2019,04,27,04,40,3.30
2019,04,27,04,41,4.20
2019,04,27,04,42,2.60
2019,04,27,04,43,4.00
2019,04,27,04,44,5.40
2019,04,27,04,45,3.50
2019,04,27,04,46,5.20
2019,04,27,04,47,4.60
2019,04,27,04,48,6.80
2019,04,27,04,49,5.90
2019,04,27,04,50,8.90
2019,04,27,04,51,7.40
2019,04,27,04,52,2.10
2019,04,27,04,53,4.80
2019,04,27,04,54,4.20
2019,04,27,04,55,5.60
2019,04,27,04,56,3.60
2019,04,27,04,57,6.00
2019,04,27,04,58,2.90
2019,04,27,04,59,7.10
2019,04,27,05,00,4.30
2019,04,27,05,01,4.80
2019,04,27,05,02,3.20
2019,04,27,05,03,4.30
2019,04,27,05,04,4.70
2019,04,27,05,05,4.70
2019,04,27,05,06,9.40
2019,04,27,05,07,9.50
2019,04,27,05,08,5.30
2019,04,27,05,09,8.60
2019,04,27,05,10,7.60
2019,04,27,05,11,6.30
2019,04,27,05,12,11.10
2019,04,27,05,13,4.50
2019,04,27,05,14,7.10
2019,04,27,05,15,12.20
2019,04,27,05,16,4.80
2019,04,27,05,17,5.80
2019,04,27,05,18,5.10
2019,04,27,05,19,3.00
2019,04,27,05,20,4.40
2019,04,27,05,21,5.10
2019,04,27,05,22,6.00
2019,04,27,05,23,7.80
2019,04,27,05,24,8.50
2019,04,27,05,25,4.60
2019,04,27,05,26,6.40
2019,04,27,05,27,3.40
2019,04,27,05,28,2.50
2019,04,27,05,29,2.00
2019,04,27,05,30,3.50
2019,04,27,05,31,4.50
2019,04,27,05,32,5.50
2019,04,27,05,33,4.80
2019,04,27,05,34,7.40
2019,04,27,05,35,8.10
2019,04,27,05,36,5.50
2019,04,27,05,37,10.40
2019,04,27,05,38,6.00
2019,04,27,05,39,8.00
2019,04,27,05,40,9.80
2019,04,27,05,41,8.20
2019,04,27,05,42,8.20
2019,04,27,05,43,4.40
2019,04,27,05,44,4.10
2019,04,27,05,45,3.90
2019,04,27,05,46,5.40
2019,04,27,05,47,5.80
2019,04,27,05,48,5.70
2019,04,27,05,49,3.60
2019,04,27,05,50,7.20
2019,04,27,05,51,6.60
2019,04,27,05,52,3.40
2019,04,27,05,53,5.00
2019,04,27,05,54,4.20
2019,04,27,05,55,7.70
2019,04,27,05,56,8.90
2019,04,27,05,57,10.50
2019,04,27,05,58,6.20
2019,04,27,05,59,6.10
2019,04,27,06,00,4.10
2019,04,27,06,01,8.30
2019,04,27,06,02,7.30
2019,04,27,06,03,7.40
2019,04,27,06,04,12.10
2019,04,27,06,05,7.50
2019,04,27,06,06,8.90
2019,04,27,06,07,5.40
2019,04,27,06,08,4.60
2019,04,27,06,09,8.40
2019,04,27,06,10,6.40
2019,04,27,06,11,7.60
2019,04,27,06,12,7.60
2019,04,27,06,13,8.00
2019,04,27,06,14,11.50
2019,04,27,06,15,9.30
2019,04,27,06,16,11.10
2019,04,27,06,17,6.90
2019,04,27,06,18,6.40
2019,04,27,06,19,5.10
2019,04,27,06,20,8.10
2019,04,27,06,21,5.50
2019,04,27,06,22,7.90
2019,04,27,06,23,9.20
2019,04,27,06,24,9.60
2019,04,27,06,25,7.30
2019,04,27,06,26,4.90
2019,04,27,06,27,4.90
2019,04,27,06,28,11.50
2019,04,27,06,29,8.00
2019,04,27,06,30,10.10
2019,04,27,06,31,7.30
2019,04,27,06,32,7.50
2019,04,27,06,33,8.60
2019,04,27,06,34,4.60
2019,04,27,06,35,9.50
2019,04,27,06,36,8.80
2019,04,27,06,37,7.80
2019,04,27,06,38,5.10
2019,04,27,06,39,9.80
2019,04,27,06,40,9.80
2019,04,27,06,41,8.70
2019,04,27,06,42,6.70
2019,04,27,06,43,7.80
2019,04,27,06,44,6.60
2019,04,27,06,45,12.20
2019,04,27,06,46,12.70
2019,04,27,06,47,9.10
2019,04,27,06,48,6.70
2019,04,27,06,49,12.00
2019,04,27,06,50,9.90
2019,04,27,06,51,7.90
2019,04,27,06,52,10.20
2019,04,27,06,53,9.20
2019,04,27,06,54,6.40
2019,04,27,06,55,11.20
2019,04,27,06,56,11.90
2019,04,27,06,57,11.50
2019,04,27,06,58,7.60
2019,04,27,06,59,15.30
2019,04,27,07,00,10.40
2019,04,27,07,01,12.10
2019,04,27,07,02,12.40
2019,04,27,07,03,10.50
2019,04,27,07,04,8.30
2019,04,27,07,05,8.80
2019,04,27,07,06,9.50
2019,04,27,07,07,10.10
2019,04,27,07,08,10.80
2019,04,27,07,09,3.80
2019,04,27,07,10,10.20
2019,04,27,07,11,13.20
2019,04,27,07,12,10.70
2019,04,27,07,13,7.50
2019,04,27,07,14,6.20
2019,04,27,07,15,8.50
2019,04,27,07,16,8.90
2019,04,27,07,17,11.60
2019,04,27,07,18,13.30
2019,04,27,07,19,8.20
2019,04,27,07,20,12.80
2019,04,27,07,21,11.00
2019,04,27,07,22,7.90
2019,04,27,07,23,6.70
2019,04,27,07,24,6.80
2019,04,27,07,25,11.30
2019,04,27,07,26,9.60
2019,04,27,07,27,13.60
2019,04,27,07,28,9.20
2019,04,27,07,29,5.40
2019,04,27,07,30,8.90
2019,04,27,07,31,9.90
2019,04,27,07,32,8.50
2019,04,27,07,33,5.80
2019,04,27,07,34,6.20
2019,04,27,07,35,10.30
2019,04,27,07,36,12.00
2019,04,27,07,37,9.20
2019,04,27,07,38,11.30
2019,04,27,07,39,10.90
2019,04,27,07,40,6.00
2019,04,27,07,41,12.20
2019,04,27,07,42,15.70
2019,04,27,07,43,11.80
2019,04,27,07,44,10.10
2019,04,27,07,45,6.50
2019,04,27,07,46,5.70
2019,04,27,07,47,6.30
2019,04,27,07,48,5.30
2019,04,27,07,49,5.60
2019,04,27,07,50,8.10
2019,04,27,07,51,4.90
2019,04,27,07,52,5.40
2019,04,27,07,53,4.00
2019,04,27,07,54,9.90
2019,04,27,07,55,6.30
2019,04,27,07,56,7.60
2019,04,27,07,57,8.20
2019,04,27,07,58,11.40
2019,04,27,07,59,11.40
2019,04,27,08,00,5.90
2019,04,27,08,01,3.70
2019,04,27,08,02,8.30
2019,04,27,08,03,9.00
2019,04,27,08,04,5.50
2019,04,27,08,05,3.70
2019,04,27,08,06,6.40
2019,04,27,08,07,7.30
2019,04,27,08,08,6.50
2019,04,27,08,09,8.00
2019,04,27,08,10,6.90
2019,04,27,08,11,7.00
2019,04,27,08,12,5.60
2019,04,27,08,13,12.00
2019,04,27,08,14,6.80
2019,04,27,08,15,15.80
2019,04,27,08,16,7.80
2019,04,27,08,17,11.10
2019,04,27,08,18,8.30
2019,04,27,08,19,11.90
2019,04,27,08,20,10.00
2019,04,27,08,21,14.80
2019,04,27,08,22,9.70
2019,04,27,08,23,12.40
2019,04,27,08,24,11.10
2019,04,27,08,25,10.50
2019,04,27,08,26,11.00
2019,04,27,08,27,9.30
2019,04,27,08,28,7.90
2019,04,27,08,29,11.80
2019,04,27,08,30,9.30
2019,04,27,08,31,14.90
2019,04,27,08,32,9.90
2019,04,27,08,33,13.80
2019,04,27,08,34,14.10
2019,04,27,08,35,12.70
2019,04,27,08,36,12.50
2019,04,27,08,37,14.70
2019,04,27,08,38,12.40
2019,04,27,08,39,19.00
2019,04,27,08,40,18.50
2019,04,27,08,41,15.50
2019,04,27,08,42,8.10
2019,04,27,08,43,16.40
2019,04,27,08,44,11.30
2019,04,27,08,45,5.70
2019,04,27,08,46,5.20
2019,04,27,08,47,13.10
2019,04,27,08,48,10.80
2019,04,27,08,49,11.70
2019,04,27,08,50,8.30
2019,04,27,08,51,16.10
2019,04,27,08,52,14.90
2019,04,27,08,53,12.20
2019,04,27,08,54,11.50
2019,04,27,08,55,11.30
2019,04,27,08,56,7.20
2019,04,27,08,57,9.30
2019,04,27,08,58,8.80
2019,04,27,08,59,12.10
2019,04,27,09,00,12.70
2019,04,27,09,01,7.60
2019,04,27,09,02,10.20
2019,04,27,09,03,8.20
2019,04,27,09,04,10.90
2019,04,27,09,05,15.30
2019,04,27,09,06,10.50
2019,04,27,09,07,8.90
2019,04,27,09,08,16.50
2019,04,27,09,09,10.20
2019,04,27,09,10,12.60
2019,04,27,09,11,14.70
2019,04,27,09,12,10.40
2019,04,27,09,13,7.80
2019,04,27,09,14,18.70
2019,04,27,09,15,11.60
2019,04,27,09,16,10.90
2019,04,27,09,17,8.20
2019,04,27,09,18,14.00
2019,04,27,09,19,9.10
2019,04,27,09,20,13.40
2019,04,27,09,21,12.30
2019,04,27,09,22,15.60
2019,04,27,09,23,15.40
2019,04,27,09,24,12.40
2019,04,27,09,25,14.40
2019,04,27,09,26,12.70
2019,04,27,09,27,13.30
2019,04,27,09,28,10.90
2019,04,27,09,29,14.40
2019,04,27,09,30,12.60
2019,04,27,09,31,18.30
2019,04,27,09,32,20.60
2019,04,27,09,33,14.40
2019,04,27,09,34,13.10
2019,04,27,09,35,19.80
2019,04,27,09,36,13.70
2019,04,27,09,37,13.80
2019,04,27,09,38,12.50
2019,04,27,09,39,9.40
2019,04,27,09,40,13.70
2019,04,27,09,41,13.90
2019,04,27,09,42,15.00
2019,04,27,09,43,8.70
2019,04,27,09,44,6.50
2019,04,27,09,45,6.70
2019,04,27,09,46,14.10
2019,04,27,09,47,12.10
2019,04,27,09,48,12.30
2019,04,27,09,49,7.50
2019,04,27,09,50,8.90
2019,04,27,09,51,14.20
2019,04,27,09,52,7.80
2019,04,27,09,53,9.10
2019,04,27,09,54,6.60
2019,04,27,09,55,11.00
2019,04,27,09,56,13.00
2019,04,27,09,57,11.70
2019,04,27,09,58,7.10
2019,04,27,09,59,10.00
2019,04,27,10,00,6.50
2019,04,27,10,01,10.80
2019,04,27,10,02,14.50
2019,04,27,10,03,9.70
2019,04,27,10,04,13.70
2019,04,27,10,05,9.30
2019,04,27,10,06,15.90
2019,04,27,10,07,16.90
2019,04,27,10,08,14.50
2019,04,27,10,09,13.30
2019,04,27,10,10,11.90
2019,04,27,10,11,10.20
2019,04,27,10,12,10.70
2019,04,27,10,13,17.40
2019,04,27,10,14,14.20
2019,04,27,10,15,10.70
2019,04,27,10,16,16.90
2019,04,27,10,17,19.60
2019,04,27,10,18,18.20
2019,04,27,10,19,10.70
2019,04,27,10,20,13.00
2019,04,27,10,21,14.90
2019,04,27,10,22,10.00
2019,04,27,10,23,14.20
2019,04,27,10,24,10.20
2019,04,27,10,25,10.10
2019,04,27,10,26,7.20
2019,04,27,10,27,12.50
2019,04,27,10,28,15.20
2019,04,27,10,29,10.80
2019,04,27,10,30,15.10
2019,04,27,10,31,14.40
2019,04,27,10,32,14.70
2019,04,27,10,33,11.80
2019,04,27,10,34,9.80
2019,04,27,10,35,6.70
2019,04,27,10,36,6.50
2019,04,27,10,37,8.00
2019,04,27,10,38,13.80
2019,04,27,10,39,13.00
2019,04,27,10,40,12.30
2019,04,27,10,41,12.20
2019,04,27,10,42,10.10
2019,04,27,10,43,8.30
2019,04,27,10,44,9.90
2019,04,27,10,45,12.20
2019,04,27,10,46,13.40
2019,04,27,10,47,17.00
2019,04,27,10,48,11.70
2019,04,27,10,49,11.10
2019,04,27,10,50,11.00
2019,04,27,10,51,14.40
2019,04,27,10,52,12.50
2019,04,27,10,53,11.30
2019,04,27,10,54,16.30
2019,04,27,10,55,15.40
2019,04,27,10,56,19.90
2019,04,27,10,57,20.70
2019,04,27,10,58,19.40
2019,04,27,10,59,18.40
2019,04,27,11,00,16.10
2019,04,27,11,01,14.10
2019,04,27,11,02,17.40
2019,04,27,11,03,18.90
2019,04,27,11,04,10.70
2019,04,27,11,05,19.90
2019,04,27,11,06,19.60
2019,04,27,11,07,21.20
2019,04,27,11,08,11.70
2019,04,27,11,09,11.40
2019,04,27,11,10,14.10
2019,04,27,11,11,9.80
2019,04,27,11,12,12.60
2019,04,27,11,13,8.90
2019,04,27,11,14,18.20
2019,04,27,11,15,17.20
2019,04,27,11,16,10.10
2019,04,27,11,17,11.80
2019,04,27,11,18,18.70
2019,04,27,11,19,12.20
2019,04,27,11,20,12.80
2019,04,27,11,21,12.60
2019,04,27,11,22,12.40
2019,04,27,11,23,11.20
2019,04,27,11,24,9.70
2019,04,27,11,25,8.60
2019,04,27,11,26,8.00
2019,04,27,11,27,15.50
2019,04,27,11,28,17.40
2019,04,27,11,29,14.40
2019,04,27,11,30,13.20
2019,04,27,11,31,11.90
2019,04,27,11,32,12.10
2019,04,27,11,33,11.00
2019,04,27,11,34,12.20
2019,04,27,11,35,16.50
2019,04,27,11,36,11.10
2019,04,27,11,37,6.80
2019,04,27,11,38,10.00
2019,04,27,11,39,14.40
2019,04,27,11,40,12.10
2019,04,27,11,41,17.40
2019,04,27,11,42,15.90
2019,04,27,11,43,15.90
2019,04,27,11,44,14.50
2019,04,27,11,45,11.90
2019,04,27,11,46,15.30
2019,04,27,11,47,14.40
2019,04,27,11,48,14.70
2019,04,27,11,49,17.40
2019,04,27,11,50,12.90
2019,04,27,11,51,12.30
2019,04,27,11,52,11.80
2019,04,27,11,53,11.70
2019,04,27,11,54,12.80
2019,04,27,11,55,8.20
2019,04,27,11,56,14.80
2019,04,27,11,57,12.40
2019,04,27,11,58,10.70
2019,04,27,11,59,10.00
2019,04,27,12,00,13.40
2019,04,27,12,01,13.80
2019,04,27,12,02,11.20
2019,04,27,12,03,15.40
2019,04,27,12,04,15.90
2019,04,27,12,05,11.90
2019,04,27,12,06,16.70
2019,04,27,12,07,17.30
2019,04,27,12,08,13.20
2019,04,27,12,09,13.10
2019,04,27,12,10,20.10
2019,04,27,12,11,18.50
2019,04,27,12,12,12.00
2019,04,27,12,13,14.00
2019,04,27,12,14,7.50
2019,04,27,12,15,14.50
2019,04,27,12,16,17.00
2019,04,27,12,17,15.20
2019,04,27,12,18,15.60
2019,04,27,12,19,14.30
2019,04,27,12,20,11.50
2019,04,27,12,21,9.30
2019,04,27,12,22,15.90
2019,04,27,12,23,19.20
2019,04,27,12,24,17.50
2019,04,27,12,25,15.90
2019,04,27,12,26,13.50
2019,04,27,12,27,12.00
2019,04,27,12,28,12.30
2019,04,27,12,29,20.00
2019,04,27,12,30,13.70
2019,04,27,12,31,13.30
2019,04,27,12,32,13.30
2019,04,27,12,33,11.90
2019,04,27,12,34,15.50
2019,04,27,12,35,10.90
2019,04,27,12,36,16.70
2019,04,27,12,37,16.80
2019,04,27,12,38,14.30
2019,04,27,12,39,18.90
2019,04,27,12,40,14.60
2019,04,27,12,41,9.50
2019,04,27,12,42,12.90
2019,04,27,12,43,8.10
2019,04,27,12,44,10.30
2019,04,27,12,45,13.90
2019,04,27,12,46,7.70
2019,04,27,12,47,14.80
2019,04,27,12,48,23.20
2019,04,27,12,49,19.80
2019,04,27,12,50,15.70
2019,04,27,12,51,15.70
2019,04,27,12,52,15.10
2019,04,27,12,53,9.20
2019,04,27,12,54,15.60
2019,04,27,12,55,10.10
2019,04,27,12,56,16.70
2019,04,27,12,57,10.40
2019,04,27,12,58,10.90
2019,04,27,12,59,18.30
2019,04,27,13,00,19.30
2019,04,27,13,01,12.00
2019,04,27,13,02,16.40
2019,04,27,13,03,9.50
2019,04,27,13,04,13.10
2019,04,27,13,05,16.80
2019,04,27,13,06,16.40
2019,04,27,13,07,15.10
2019,04,27,13,08,12.90
2019,04,27,13,09,10.10
2019,04,27,13,10,7.90
2019,04,27,13,11,6.90
2019,04,27,13,12,11.70
2019,04,27,13,13,18.40
2019,04,27,13,14,14.30
2019,04,27,13,15,11.60
2019,04,27,13,16,9.80
2019,04,27,13,17,8.70
2019,04,27,13,18,17.10
2019,04,27,13,19,12.00
2019,04,27,13,20,21.90
2019,04,27,13,21,20.90
2019,04,27,13,22,10.60
2019,04,27,13,23,21.40
2019,04,27,13,24,16.40
2019,04,27,13,25,9.00
2019,04,27,13,26,12.50
2019,04,27,13,27,14.10
2019,04,27,13,28,17.30
2019,04,27,13,29,16.40
2019,04,27,13,30,13.10
2019,04,27,13,31,8.90
2019,04,27,13,32,12.20
2019,04,27,13,33,16.00
2019,04,27,13,34,14.70
2019,04,27,13,35,13.30
2019,04,27,13,36,11.30
2019,04,27,13,37,11.00
2019,04,27,13,38,10.10
2019,04,27,13,39,15.00
2019,04,27,13,40,15.30
2019,04,27,13,41,15.40
2019,04,27,13,42,12.80
2019,04,27,13,43,10.30
2019,04,27,13,44,12.30
2019,04,27,13,45,16.50
2019,04,27,13,46,14.20
2019,04,27,13,47,10.60
2019,04,27,13,48,13.10
2019,04,27,13,49,10.10
2019,04,27,13,50,12.00
2019,04,27,13,51,18.30
2019,04,27,13,52,15.10
2019,04,27,13,53,15.30
2019,04,27,13,54,12.70
2019,04,27,13,55,13.20
2019,04,27,13,56,10.10
2019,04,27,13,57,10.60
2019,04,27,13,58,15.30
2019,04,27,13,59,10.10
2019,04,27,14,00,12.00
2019,04,27,14,01,7.20
2019,04,27,14,02,14.70
2019,04,27,14,03,9.90
2019,04,27,14,04,13.40
2019,04,27,14,05,10.80
2019,04,27,14,06,14.10
2019,04,27,14,07,12.40
2019,04,27,14,08,9.00
2019,04,27,14,09,12.50
2019,04,27,14,10,12.00
2019,04,27,14,11,12.40
2019,04,27,14,12,13.70
2019,04,27,14,13,11.80
2019,04,27,14,14,10.20
2019,04,27,14,15,14.10
2019,04,27,14,16,9.70
2019,04,27,14,17,13.70
2019,04,27,14,18,16.50
2019,04,27,14,19,7.40
2019,04,27,14,20,12.50
2019,04,27,14,21,10.20
2019,04,27,14,22,14.50
2019,04,27,14,23,12.20
2019,04,27,14,24,11.30
2019,04,27,14,25,9.70
2019,04,27,14,26,15.00
2019,04,27,14,27,9.90
2019,04,27,14,28,16.70
2019,04,27,14,29,12.00
2019,04,27,14,30,9.80
2019,04,27,14,31,13.30
2019,04,27,14,32,18.90
2019,04,27,14,33,16.80
2019,04,27,14,34,13.30
2019,04,27,14,35,11.80
2019,04,27,14,36,7.90
2019,04,27,14,37,13.30
2019,04,27,14,38,6.20
2019,04,27,14,39,14.00
2019,04,27,14,40,10.10
2019,04,27,14,41,7.40
2019,04,27,14,42,16.60
2019,04,27,14,43,18.50
2019,04,27,14,44,11.00
2019,04,27,14,45,12.40
2019,04,27,14,46,14.30
2019,04,27,14,47,12.40
2019,04,27,14,48,9.70
2019,04,27,14,49,12.20
2019,04,27,14,50,12.30
2019,04,27,14,51,14.30
2019,04,27,14,52,9.70
2019,04,27,14,53,10.70
2019,04,27,14,54,9.90
2019,04,27,14,55,9.40
2019,04,27,14,56,10.20
2019,04,27,14,57,9.70
2019,04,27,14,58,13.60
2019,04,27,14,59,9.70
2019,04,27,15,00,8.90
2019,04,27,15,01,5.80
2019,04,27,15,02,10.70
2019,04,27,15,03,14.10
2019,04,27,15,04,11.40
2019,04,27,15,05,7.00
2019,04,27,15,06,5.90
2019,04,27,15,07,11.50
2019,04,27,15,08,12.90
2019,04,27,15,09,12.20
2019,04,27,15,10,15.00
2019,04,27,15,11,15.40
2019,04,27,15,12,10.60
2019,04,27,15,13,9.20
2019,04,27,15,14,7.30
2019,04,27,15,15,9.90
2019,04,27,15,16,9.40
2019,04,27,15,17,10.90
2019,04,27,15,18,11.00
2019,04,27,15,19,11.80
2019,04,27,15,20,7.90
2019,04,27,15,21,8.30
2019,04,27,15,22,10.40
2019,04,27,15,23,11.60
2019,04,27,15,24,7.20
2019,04,27,15,25,7.10
2019,04,27,15,26,10.70
2019,04,27,15,27,10.30
2019,04,27,15,28,9.50
2019,04,27,15,29,12.40
2019,04,27,15,30,5.90
2019,04,27,15,31,8.60
2019,04,27,15,32,11.90
2019,04,27,15,33,14.50
2019,04,27,15,34,11.00
2019,04,27,15,35,12.20
2019,04,27,15,36,10.10
2019,04,27,15,37,7.90
2019,04,27,15,38,11.20
2019,04,27,15,39,12.20
2019,04,27,15,40,8.80
2019,04,27,15,41,13.20
2019,04,27,15,42,8.20
2019,04,27,15,43,4.70
2019,04,27,15,44,8.00
2019,04,27,15,45,8.60
2019,04,27,15,46,12.50
2019,04,27,15,47,11.30
2019,04,27,15,48,6.30
2019,04,27,15,49,10.00
2019,04,27,15,50,8.70
2019,04,27,15,51,10.80
2019,04,27,15,52,12.70
2019,04,27,15,53,9.20
2019,04,27,15,54,9.80
2019,04,27,15,55,12.60
2019,04,27,15,56,10.20
2019,04,27,15,57,5.80
2019,04,27,15,58,12.50
2019,04,27,15,59,13.10
2019,04,27,16,00,7.90
2019,04,27,16,01,4.70
2019,04,27,16,02,12.00
2019,04,27,16,03,10.90
2019,04,27,16,04,7.90
2019,04,27,16,05,10.00
2019,04,27,16,06,7.60
2019,04,27,16,07,8.30
2019,04,27,16,08,15.40
2019,04,27,16,09,12.00
2019,04,27,16,10,7.90
2019,04,27,16,11,5.90
2019,04,27,16,12,5.80
2019,04,27,16,13,6.80
2019,04,27,16,14,12.10
2019,04,27,16,15,12.30
2019,04,27,16,16,11.70
2019,04,27,16,17,8.90
2019,04,27,16,18,13.50
2019,04,27,16,19,9.50
2019,04,27,16,20,10.10
2019,04,27,16,21,8.80
2019,04,27,16,22,7.60
2019,04,27,16,23,10.80
2019,04,27,16,24,8.70
2019,04,27,16,25,6.10
2019,04,27,16,26,10.90
2019,04,27,16,27,9.10
2019,04,27,16,28,10.30
2019,04,27,16,29,7.70
2019,04,27,16,30,12.20
2019,04,27,16,31,14.40
2019,04,27,16,32,12.20
2019,04,27,16,33,10.00
2019,04,27,16,34,17.60
2019,04,27,16,35,14.10
2019,04,27,16,36,7.10
2019,04,27,16,37,8.50
2019,04,27,16,38,13.70
2019,04,27,16,39,12.50
2019,04,27,16,40,14.40
2019,04,27,16,41,11.60
2019,04,27,16,42,16.60
2019,04,27,16,43,16.70
2019,04,27,16,44,12.90
2019,04,27,16,45,13.50
2019,04,27,16,46,11.90
2019,04,27,16,47,12.20
2019,04,27,16,48,8.80
2019,04,27,16,49,8.00
2019,04,27,16,50,13.80
2019,04,27,16,51,11.70
2019,04,27,16,52,10.60
2019,04,27,16,53,8.80
2019,04,27,16,54,8.80
2019,04,27,16,55,10.40
2019,04,27,16,56,11.60
2019,04,27,16,57,15.10
2019,04,27,16,58,9.40
2019,04,27,16,59,10.60
2019,04,27,17,00,5.90
2019,04,27,17,01,11.20
2019,04,27,17,02,9.50
2019,04,27,17,03,12.00
2019,04,27,17,04,12.10
2019,04,27,17,05,13.00
2019,04,27,17,06,12.00
2019,04,27,17,07,9.40
2019,04,27,17,08,11.50
2019,04,27,17,09,12.90
2019,04,27,17,10,9.40
2019,04,27,17,11,13.10
2019,04,27,17,12,14.70
2019,04,27,17,13,8.70
2019,04,27,17,14,8.20
2019,04,27,17,15,8.10
2019,04,27,17,16,7.60
2019,04,27,17,17,12.60
2019,04,27,17,18,19.20
2019,04,27,17,19,8.70
2019,04,27,17,20,14.80
2019,04,27,17,21,11.00
2019,04,27,17,22,8.60
2019,04,27,17,23,11.30
2019,04,27,17,24,8.90
2019,04,27,17,25,10.80
2019,04,27,17,26,12.00
2019,04,27,17,27,9.40
2019,04,27,17,28,8.80
2019,04,27,17,29,7.00
2019,04,27,17,30,9.80
2019,04,27,17,31,5.80
2019,04,27,17,32,8.10
2019,04,27,17,33,15.60
2019,04,27,17,34,4.30
2019,04,27,17,35,4.80
2019,04,27,17,36,7.60
2019,04,27,17,37,10.90
2019,04,27,17,38,10.20
2019,04,27,17,39,8.20
2019,04,27,17,40,12.00
2019,04,27,17,41,12.30
2019,04,27,17,42,9.80
2019,04,27,17,43,7.00
2019,04,27,17,44,11.00